CET,Max TemperatureF,Mean TemperatureF,Min TemperatureF,Max Dew PointF,MeanDew PointF,Min DewpointF,Max Humidity, Mean Humidity, Min Humidity, Max Sea Level PressureIn, Mean Sea Level PressureIn, Min Sea Level PressureIn, Max VisibilityMiles, Mean VisibilityMiles, Min VisibilityMiles, Max Wind SpeedMPH, Mean Wind SpeedMPH, Max Gust SpeedMPH,PrecipitationIn, CloudCover, Events, WindDirDegrees
2012-11-1,50,46,41,45,41,37,93,82,56,29.27,29.10,29.00,19,7,3,23,12,37,0.12,3,Rain,194
2012-11-2,46,43,40,43,38,36,93,83,66,29.54,29.42,29.27,19,7,4,21,17,30,0.12,5,Rain,212
2012-11-3,46,42,39,45,40,37,93,89,79,29.64,29.53,29.44,19,7,3,17,10,,0.20,3,Rain,205
2012-11-4,50,45,40,45,40,37,93,82,54,29.66,29.49,29.36,12,6,2,22,10,29,0.12,4,Rain,191
2012-11-5,43,41,39,41,40,37,100,91,77,29.89,29.63,29.47,12,5,0,15,10,,0.08,5,Fog-Rain,246
2012-11-6,48,42,35,42,38,34,100,87,63,30.19,30.08,29.89,14,4,0,16,8,,0.08,3,Fog-Rain,242
2012-11-7,51,47,43,46,44,41,100,87,69,30.32,30.26,30.15,9,4,1,16,13,,0.01,6,Rain,240
2012-11-8,47,46,45,43,42,40,87,81,71,30.27,30.14,30.06,9,6,3,16,13,,0.00,6,Rain,219
2012-11-9,51,48,44,45,41,37,93,78,54,30.12,29.95,29.71,16,7,5,13,8,,0.01,4,Rain,185
2012-11-10,53,50,46,50,47,43,94,89,79,29.73,29.56,29.44,19,6,3,18,12,29,0.01,5,Rain,190
2012-11-11,48,44,41,43,40,39,93,86,68,30.15,29.88,29.62,16,6,4,14,10,,0.00,5,,220
2012-11-12,43,42,40,41,39,37,93,88,77,30.37,30.26,30.15,11,6,4,15,10,,0.00,5,,204
2012-11-13,48,44,41,45,43,39,100,91,81,30.46,30.41,30.36,9,5,1,15,10,,0.03,6,Rain,185
2012-11-14,50,44,37,43,39,36,100,84,57,30.44,30.33,30.27,7,4,1,7,4,,0.00,4,Fog,109
2012-11-15,40,39,38,37,36,34,93,86,75,30.29,30.20,30.12,4,4,2,6,3,,0.00,6,,134
2012-11-16,44,40,37,37,35,34,87,83,66,30.16,30.04,29.92,5,3,2,10,5,,0.00,6,,177
2012-11-17,47,42,36,46,40,32,100,90,77,29.93,29.84,29.80,9,3,1,15,10,,0.01,6,Rain,186
2012-11-18,46,44,41,46,44,39,100,96,87,30.06,29.93,29.80,6,2,0,8,5,,0.20,6,Fog-Rain,11
2012-11-19,52,44,37,48,43,37,100,93,82,30.05,29.99,29.95,6,2,0,13,6,,0.00,5,Fog,159
2012-11-20,51,46,39,46,43,37,93,89,75,30.05,30.02,29.98,11,4,2,13,8,,0.00,4,,174
2012-11-21,48,43,38,45,39,36,93,85,68,30.09,29.93,29.86,16,6,4,20,11,,0.00,4,Rain,182
2012-11-22,48,44,41,43,40,37,93,86,68,30.21,30.13,30.04,14,6,4,18,12,,0.00,3,,187
2012-11-23,46,44,41,45,42,37,100,89,74,30.05,29.99,29.92,17,6,2,20,13,24,0.28,5,Rain,189
2012-11-24,53,48,45,47,46,45,100,91,77,30.06,29.96,29.71,6,3,0,14,4,,0.02,4,Fog-Rain,133
2012-11-25,52,48,42,47,41,37,87,71,53,29.92,29.81,29.65,19,8,6,30,20,44,0.00,3,Rain,207
2012-11-26,52,47,42,45,41,37,93,79,63,29.87,29.66,29.56,19,8,5,16,10,28,0.00,3,Rain,185
2012-11-27,46,44,41,41,39,37,93,83,72,29.73,29.62,29.56,19,7,4,17,11,,0.01,6,Rain,194
2012-11-28,43,41,39,41,39,37,100,91,76,29.76,29.71,29.68,19,5,0,13,4,,0.04,5,Fog-Rain,351
2012-11-29,42,38,33,39,35,32,100,86,59,29.79,29.72,29.68,19,7,5,12,8,,0.00,5,,333
2012-11-30,35,32,30,34,32,30,100,96,92,29.94,29.83,29.74,5,1,0,9,5,,0.00,6,Fog,226